sat.trackr.live / text

‹ back to catalog

STARLINK-35425

NORAD 65874 · 2025-223W

PAYLOAD ACTIVE UNKNOWN

§ Identity

Operator
Country
US
Launch date
2025-10-03
Launch site
AFWTR
Launch vehicle
Mass (kg)
RCS (m²)

Purposes: comms

External: N2YO · Heavens-Above · Gunter

§ Orbital elements

Epoch: 2026-09-19T23:53:59.454528Z

Period
93.85 min
Inclination
53.1576°
Eccentricity
0.0001227
Mean motion
15.34391975 rev/d
Perigee alt
461.9 km
Apogee alt
463.6 km
Semi-major
6,840.9 km
B*
4.3633e-4
RAAN
108.1786°
Arg perigee
206.2389°
Mean anomaly
153.8551°
Rev number
5,400

§ Raw data

STARLINK-354251 65874U 25223W   26262.99582702  .00014390  00000+0  43633-3 0  99922 65874  53.1576 108.1786 0001227 206.2389 153.8551 15.34391975 54006

JSON: /api/v1/satellites/65874 · /tle

For live sub-satellite position, see the globe view (requires WebGL).

§ Visibility from observer

Set your observer location to see the next 7 days of passes ≥ 10°. The values pass through the URL so the page stays shareable.

No JS? Fill the form by hand. The geolocation button needs JavaScript.